N5RML-1 Weather Reports


Display with metric or nautical units.
time (UTC)temp
F
wind
direction
speed
MPH
gust
MPH
rain 1hr
in
rain 24hr
in
rain mn
in
humidity
%
barometer
mb
20260510233527 84 130 1.0 5.0 0.00 0.02 0.01 65 1016.7
20260510232535 85 144 1.0 3.0 0.00 0.04 0.01 63 1016.9
20260510231524 86 124 2.0 3.0 0.00 0.05 0.01 62 1016.9
20260510230532 85 157 2.0 5.0 0.00 0.07 0.01 63 1016.8
20260510225521 84 158 3.0 5.0 0.00 0.07 0.01 65 1016.7
20260510224530 84 153 4.0 6.0 0.00 0.07 0.01 64 1016.7
20260510223557 84 153 5.0 8.0 0.00 0.07 0.01 64 1016.7
20260510222527 85 125 3.0 5.0 0.00 0.07 0.01 64 1016.7
20260510221558 85 155 5.0 7.0 0.00 0.07 0.01 65 1016.4
20260510220545 85 152 4.0 5.0 0.00 0.07 0.01 64 1016.5
20260510215533 85 149 3.0 5.0 0.00 0.08 0.01 63 1016.6
20260510214522 85 138 3.0 5.0 0.00 0.09 0.01 64 1016.7
20260510213529 85 146 4.0 7.0 0.00 0.09 0.01 63 1016.5
20260510212537 85 141 4.0 8.0 0.00 0.09 0.01 63 1016.5
20260510211526 86 104 4.0 7.0 0.00 0.09 0.01 63 1016.6
20260510210554 85 101 3.0 6.0 0.00 0.09 0.01 64 1016.8
20260510205524 85 98 3.0 4.0 0.00 0.09 0.01 65 1016.7
20260510204531 84 96 4.0 6.0 0.00 0.09 0.01 66 1016.6
20260510203544 85 139 3.0 5.0 0.00 0.09 0.01 66 1016.8
20260510202529 84 109 4.0 6.0 0.00 0.09 0.01 65 1016.8
20260510201537 84 147 6.0 10.0 0.00 0.09 0.01 66 1016.7
20260510200526 85 145 5.0 8.0 0.00 0.10 0.01 66 1016.5
20260510195536 84 138 4.0 6.0 0.00 0.11 0.01 67 1016.6
20260510194523 83 107 3.0 6.0 0.00 0.13 0.01 69 1016.7
20260510193532 84 147 4.0 10.0 0.00 0.14 0.01 68 1016.8
20260510192521 84 104 3.0 4.0 0.00 0.15 0.01 68 1016.8
20260510191529 85 149 3.0 9.0 0.00 0.17 0.01 68 1016.9
20260510190537 86 73 4.0 7.0 0.00 0.18 0.01 68 1016.9
20260510185548 85 143 4.0 7.0 0.00 0.19 0.01 68 1016.8
20260510184534 85 69 4.0 8.0 0.00 0.20 0.01 68 1016.9
20260510183524 85 169 3.0 6.0 0.00 0.21 0.01 69 1017.0
20260510182552 85 104 3.0 7.0 0.00 0.23 0.01 69 1017.1
20260510181543 85 126 4.0 9.0 0.00 0.24 0.01 69 1017.4
20260510180528 84 23 4.0 7.0 0.00 0.25 0.01 70 1017.6
20260510175536 83 105 4.0 6.0 0.00 0.26 0.01 70 1017.8
20260510174525 84 134 4.0 7.0 0.00 0.27 0.01 69 1017.9
20260510173536 84 115 4.0 7.0 0.00 0.28 0.01 68 1017.9
20260510172523 84 74 3.0 6.0 0.00 0.29 0.01 67 1018.0
20260510171530 83 155 4.0 6.0 0.00 0.32 0.01 68 1018.1
20260510170540 83 93 2.0 7.0 0.00 0.35 0.01 69 1018.2
20260510165529 82 157 3.0 7.0 0.00 0.40 0.01 69 1018.3
20260510164536 83 55 3.0 5.0 0.00 0.53 0.01 69 1018.2
20260510163525 81 46 3.0 6.0 0.00 0.59 0.01 71 1018.2
20260510162533 81 110 2.0 6.0 0.00 0.61 0.01 72 1018.3
20260510161525 80 151 4.0 6.0 0.00 0.63 0.01 73 1018.3
20260510160531 80 137 3.0 6.0 0.00 0.66 0.01 75 1018.2
20260510155522 80 154 4.0 7.0 0.00 0.70 0.01 73 1017.9
20260510154528 79 171 3.0 5.0 0.00 0.79 0.01 75 1017.9
20260510153537 79 118 3.0 6.0 0.00 0.86 0.01 76 1017.9
20260510152525 79 105 2.0 5.0 0.00 0.86 0.01 77 1018.0
20260510151535 77 121 3.0 6.0 0.00 0.86 0.01 80 1018.1
20260510150523 76 62 2.0 5.0 0.00 0.86 0.01 83 1018.2
20260510145531 76 96 2.0 5.0 0.00 0.87 0.01 83 1018.3
20260510144521 76 24 3.0 5.0 0.00 0.87 0.01 84 1018.3
20260510143549 76 103 3.0 6.0 0.00 0.87 0.01 85 1018.1
20260510142619 74 37 1.0 4.0 0.00 0.87 0.01 88 1018.2
20260510141526 74 99 2.0 5.0 0.00 0.88 0.01 88 1018.1
20260510140534 74 0.0 0.0 0.00 0.90 0.01 90 1018.0
20260510135523 73 180 0.0 3.0 0.00 0.93 0.01 92 1018.0
20260510134534 72 32 1.0 5.0 0.00 0.96 0.01 94 1018.1
20260510133521 71 0.0 0.0 0.00 1.12 0.01 95 1018.0
20260510132529 71 45 1.0 4.0 0.00 1.32 0.01 97 1017.9
20260510131537 71 45 1.0 2.0 0.00 1.64 0.01 97 1017.8
20260510130548 71 0.0 2.0 0.00 1.72 0.01 97 1017.5
20260510125534 70 90 1.0 5.0 0.00 1.72 0.01 97 1017.3
20260510124524 69 135 0.0 4.0 0.00 1.72 0.01 97 1017.3
20260510123554 69 0.0 4.0 0.00 1.72 0.01 97 1017.1
20260510122544 68 0.0 0.0 0.00 1.72 0.01 97 1016.9
20260510121550 68 0.0 0.0 0.00 1.72 0.01 97 1016.8
20260510120537 68 45 0.0 2.0 0.00 1.72 0.01 97 1016.7
20260510115527 68 45 0.0 2.0 0.00 1.72 0.01 97 1016.5
20260510114556 68 45 0.0 2.0 0.00 1.72 0.01 97 1016.4
20260510113524 68 60 0.0 1.0 0.00 1.72 0.01 97 1016.1
20260510112615 67 45 0.0 1.0 0.00 1.72 0.01 97 1016.0
20260510111523 67 0.0 0.0 0.00 1.72 0.01 97 1015.9
20260510110529 67 0.0 0.0 0.00 1.72 0.01 97 1015.8
20260510105522 67 0.0 0.0 0.00 1.72 0.01 97 1015.6
20260510104547 68 90 0.0 3.0 0.00 1.72 0.01 97 1015.3
20260510103535 68 0.0 0.0 0.00 1.72 0.01 97 1015.2
20260510102526 68 0.0 0.0 0.00 1.72 0.01 97 1015.0
20260510101533 68 0.0 1.0 0.00 1.72 0.01 97 1014.8
20260510100522 68 45 0.0 2.0 0.01 1.72 0.01 97 1014.7
20260510095530 68 45 0.0 3.0 0.01 1.72 0.01 97 1014.7
20260510094520 68 0.0 0.0 0.01 1.72 0.01 97 1014.7
20260510093529 68 0.0 0.0 0.01 1.72 0.01 96 1014.7
20260510092536 68 0.0 2.0 0.01 1.72 0.01 96 1014.6
20260510091525 68 353 0.0 2.0 0.01 1.72 0.01 96 1014.4
20260510090534 67 0 0.0 3.0 0.00 1.71 0.00 96 1014.4
20260510085523 67 0.0 0.0 0.00 1.71 0.00 96 1014.4
20260510084531 68 0.0 0.0 0.00 1.71 0.00 96 1014.5
20260510083521 68 0.0 0.0 0.00 1.71 0.00 96 1014.5
20260510082530 68 0.0 0.0 0.00 1.71 0.00 96 1014.6
20260510081537 67 0.0 0.0 0.00 1.71 0.00 96 1014.4
20260510080525 66 0.0 0.0 0.00 1.71 0.00 96 1014.1
20260510075533 65 0.0 0.0 0.00 1.71 0.00 95 1014.2
20260510074523 65 0.0 0.0 0.00 1.72 0.00 95 1014.2
20260510073531 65 0.0 0.0 0.00 1.72 0.00 95 1014.0
20260510072521 65 0.0 0.0 0.00 1.72 0.00 95 1013.9
20260510071548 65 0.0 0.0 0.00 1.72 0.00 95 1013.8
20260510070746 0 0.0 0.0 0.00 1.72 0.00 1013.9
20260510070537 66 0.0 0.0 0.00 1.72 0.00 95 1014.0
20260510065526 66 0.0 0.0 0.00 1.72 0.00 95 1014.1
20260510064535 66 0.0 0.0 0.00 1.72 0.00 95 1014.1
20260510063524 66 0.0 0.0 0.00 1.72 0.00 95 1013.9
20260510062532 66 0.0 0.0 0.00 1.72 0.00 95 1013.9
20260510061542 66 0.0 0.0 0.00 1.72 0.00 95 1014.1
20260510060529 66 0.0 0.0 0.00 1.72 0.00 95 1014.1
20260510055558 67 0.0 0.0 0.00 1.72 0.00 95 1014.2
20260510054527 67 0.0 0.0 0.00 1.72 0.00 95 1014.1
20260510053535 67 0.0 0.0 0.00 1.72 0.00 95 1013.8
20260510052524 67 0.0 0.0 0.00 1.72 0.00 95 1014.0
20260510051532 68 0.0 0.0 0.00 1.72 0.00 95 1013.9
20260510050522 68 142 1.0 2.0 0.00 1.72 0.00 95 1014.1
20260510045530 68 149 2.0 4.0 0.00 1.72 1.72 95 1014.1
20260510044520 68 172 2.0 5.0 0.00 1.72 1.72 95 1014.1
20260510043528 68 144 2.0 5.0 0.00 1.72 1.72 95 1014.2
20260510042535 68 0.0 0.0 0.00 1.72 1.72 95 1014.5
20260510041524 68 119 1.0 3.0 0.00 1.72 1.72 95 1014.3
20260510040532 68 156 2.0 5.0 0.00 1.72 1.72 95 1014.2
20260510035523 68 149 3.0 5.0 0.00 1.72 1.72 95 1014.4
20260510034529 68 151 4.0 6.0 0.00 1.72 1.72 95 1014.5
20260510033520 68 141 2.0 5.0 0.00 1.72 1.72 95 1014.7
20260510032527 68 0.0 0.0 0.00 1.72 1.72 94 1014.7
20260510031535 68 0.0 0.0 0.00 1.72 1.72 94 1014.8
20260510030526 68 0.0 0.0 0.00 1.72 1.72 94 1014.8
20260510025533 68 0.0 0.0 0.00 1.72 1.72 94 1015.0
20260510024522 68 0.0 0.0 0.00 1.72 1.72 94 1014.9
20260510023531 68 0.0 0.0 0.00 1.72 1.72 94 1014.7
20260510022520 68 0.0 0.0 0.00 1.72 1.72 94 1014.5
20260510021527 68 0.0 0.0 0.00 1.72 1.72 94 1014.1
20260510020536 68 0.0 0.0 0.00 1.72 1.72 94 1014.1
20260510015526 69 0.0 0.0 0.00 1.72 1.72 94 1014.1
20260510014533 69 162 4.0 6.0 0.00 1.72 1.72 94 1014.1
20260510013525 69 153 4.0 6.0 0.00 1.72 1.72 94 1013.8
20260510012530 69 145 2.0 5.0 0.01 1.72 1.72 94 1013.9
20260510011540 69 127 2.0 4.0 0.01 1.72 1.72 94 1013.7
20260510010528 69 163 3.0 6.0 0.01 1.72 1.72 94 1013.7
20260510005536 69 156 3.0 6.0 0.01 1.72 1.72 94 1013.8
20260510004525 69 147 3.0 5.0 0.01 1.72 1.72 94 1013.8
20260510003553 69 141 3.0 5.0 0.01 1.72 1.72 94 1013.8
20260510002604 69 168 4.0 6.0 0.02 1.71 1.71 94 1013.8
20260510001530 69 154 2.0 4.0 0.03 1.71 1.71 94 1013.8
20260510000521 69 136 2.0 3.0 0.05 1.71 1.71 94 1013.6
20260509235528 69 145 3.0 5.0 0.05 1.71 1.71 94 1013.8
20260509234537 69 141 2.0 3.0 0.05 1.71 1.71 94 1013.6